Location: Vaughan
(31.9146°N, 97.1736°W)
Time: 22:12:19
(UTC+00:00)

Cosmos 1980 Rocket - Pass Details

Date: 10 December 2025
Orbit: 830 x 847 km, 71.0° (Epoch: 21 January)

Event Time Altitude Azimuth Distance (km) Brightness Sun altitude
Exits shadow 10:32:06 43° 104° (ESE) 1,151 3.2 -34.4°
Drops below altitude 10° 10:36:19 10° 142° (SE) 2,426 5.1 -33.5°
Sets 10:38:49 0° 147° (SSE) 3,358 5.8 -33.0°
